Weather History for LIVC - April, 2013

Change the Weather History Date:

Thursday, April 11, 2013

  Actual Average Record
Temperature  
Mean Temperature 34 °F -  
Max Temperature 37 °F 37 °F 48 °F (2011)
Min Temperature 32 °F 30 °F 23 °F (2001)
Degree Days  
Heating Degree Days 30    
Moisture  
Dew Point 33 °F    
Average Humidity 92    
Maximum Humidity 100    
Minimum Humidity 81    
Precipitation  
Precipitation 0.00 in 0.07 in - ()
Sea Level Pressure  
Sea Level Pressure 29.93 in    
Wind  
Wind Speed 31 mph ()    
Max Wind Speed 58 mph    
Max Gust Speed -    
Visibility 2.9 miles    
Events Fog    
Averages and records for this station are not official NWS values.
T = Trace of Precipitation, MM = Missing Value Source: Averaged Metar Reports

Daily Weather History Graph

Daily Weather History Graph

Search for Another Location

Airport or City:

Trip Planner

Search our weather history database for the weather conditions in past years. The results will help you decide how hot, cold, wet, or windy it might be!

Date:

Astronomy

Apr. 11, 2013 Rise Set
Actual Time 6:40 AM CEST 7:56 PM CEST
Civil Twilight 6:10 AM CEST 8:26 PM CEST
Nautical Twilight 5:34 AM CEST 9:02 PM CEST
Astronomical Twilight 4:56 AM CEST 9:40 PM CEST
Moon 6:59 AM CEST (4/11) 9:18 PM CEST (4/11)
Length of Visible Light 14h 15m
Length of Day
13h 15m
New Moon, 1% of the Moon is Illuminated
Apr 11
New Moon
Apr 18
First Quarter
Apr 25
Full
May 2
Last Quarter
May 10
New

Hourly Weather History & Observations

Time (CEST) Temp. Windchill Dew Point Humidity Pressure Visibility Wind Dir Wind Speed Gust Speed Precip Events Conditions
12:55 AM 33.8 °F 19.0 °F 28.4 °F 81% 29.92 in 6.2 mi West 35.7 mph - N/A   Scattered Clouds
1:55 AM 35.6 °F 22.1 °F 32.0 °F 87% 29.92 in 6.2 mi West 32.2 mph - N/A   Scattered Clouds
2:00 AM 35 °F - 32 °F 84%  in 12 mi West 32.2 mph - -   Partly Cloudy
2:55 AM 35.6 °F 21.1 °F 32.0 °F 87% 29.92 in 6.2 mi West 38.0 mph - N/A   Scattered Clouds
3:55 AM 33.8 °F 19.6 °F 28.4 °F 81% 29.92 in 6.2 mi West 32.2 mph - N/A   Scattered Clouds
4:55 AM 33.8 °F 19.0 °F 30.2 °F 87% 29.92 in 6.2 mi West 35.7 mph - N/A   Scattered Clouds
5:55 AM 32.0 °F 17.6 °F 30.2 °F 93% 29.92 in 6.2 mi West 29.9 mph - N/A   Scattered Clouds
6:55 AM 33.8 °F 19.4 °F 28.4 °F 81% 29.89 in - West 33.4 mph - N/A   Clear
7:55 AM 33.8 °F 18.3 °F 30.2 °F 87% 29.89 in - WSW 40.3 mph - N/A   Clear
8:00 AM 33 °F - 30 °F 82%  in 19 mi WSW 40.3 mph - -  
8:55 AM 33.8 °F 18.3 °F 30.2 °F 87% 29.92 in - WSW 40.3 mph - N/A   Clear
9:55 AM 35.6 °F 22.7 °F 33.8 °F 93% 29.95 in 0.1 mi West 28.8 mph - N/A Fog Fog
10:55 AM 35.6 °F 24.8 °F 33.8 °F 93% 29.95 in - West 19.6 mph - N/A   Clear
11:55 AM 35.6 °F 22.5 °F 33.8 °F 93% 29.98 in 0.1 mi West 29.9 mph - N/A Fog Fog
12:55 PM 35.6 °F 22.7 °F 35.6 °F 100% 29.98 in 0.0 mi West 28.8 mph - N/A Fog Fog
1:55 PM 35.6 °F 23.7 °F 33.8 °F 93% 29.95 in 0.0 mi West 24.2 mph - N/A Fog Fog
2:00 PM 36 °F - 34 °F 91%  in 0 mi West 24.2 mph - - Fog Heavy Fog
2:55 PM 37.4 °F 25.4 °F 35.6 °F 93% 29.98 in 0.0 mi West 27.6 mph - N/A Fog Fog
3:55 PM 37.4 °F 24.6 °F 37.4 °F 100% 29.98 in 0.0 mi WNW 32.2 mph - N/A Fog Fog
4:55 PM 35.6 °F 21.5 °F 35.6 °F 100% 29.95 in 0.0 mi West 35.7 mph - N/A Fog Fog
5:55 PM 35.6 °F 21.0 °F 35.6 °F 100% 29.95 in 0.0 mi West 39.1 mph - N/A Fog Fog
6:55 PM 35.6 °F 21.5 °F 35.6 °F 100% 29.95 in 0.0 mi West 35.7 mph - N/A Fog Fog
7:55 PM 35.6 °F 20.8 °F 35.6 °F 100% 29.92 in 0.0 mi West 40.3 mph - N/A Fog Fog
8:00 PM 36 °F - 36 °F 100%  in 0 mi West 40.3 mph - - Fog Heavy Fog
8:55 PM 35.6 °F 19.6 °F 35.6 °F 100% 29.92 in 0.0 mi West 49.5 mph - N/A Fog Fog
9:55 PM 35.6 °F 20.0 °F 35.6 °F 100% 29.92 in 0.0 mi West 46.0 mph - N/A Fog Fog
10:55 PM 35.6 °F 18.6 °F 33.8 °F 93% 29.86 in 0.0 mi West 57.5 mph - N/A Fog Fog
11:55 PM 35.6 °F 18.9 °F 33.8 °F 93% 29.89 in 0.0 mi West 55.2 mph - N/A Fog Fog